Szolnok, Hungary

2:10 AM CET on March 24, 2017 (GMT +0100)
Szolnok

Weather History for LHSN - October, 2013

Change the Weather History Date:

Saturday, October 5, 2013

  Actual Average (LHBP) Record (LHBP)
Temperature  
Mean Temperature 42 °F -  
Max Temperature 57 °F 65 °F 77 °F (2011)
Min Temperature 26 °F 46 °F 24 °F (2013)
Degree Days  
Heating Degree Days 24    
Moisture  
Dew Point 28 °F    
Average Humidity 61    
Maximum Humidity 100    
Minimum Humidity 31    
Precipitation  
Precipitation 0.00 in - - ()
Sea Level Pressure  
Sea Level Pressure 30.32 in    
Wind  
Wind Speed 2 mph ()    
Max Wind Speed 9 mph    
Max Gust Speed -    
Visibility 4.7 miles    
Events      
Averages and records for this station are not official NWS values.
T = Trace of Precipitation, MM = Missing Value Source: Averaged Metar Reports

Daily Weather History Graph

Daily Weather History Graph

Search for Another Location

Airport or City:

Trip Planner

Search our weather history database for the weather conditions in past years. The results will help you decide how hot, cold, wet, or windy it might be!

Date:

Astronomy

Oct. 05, 2013 Rise Set
Actual Time 6:43 AM CEST 6:10 PM CEST
Civil Twilight 6:12 AM CEST 6:41 PM CEST
Nautical Twilight 5:37 AM CEST 7:16 PM CEST
Astronomical Twilight 5:01 AM CEST 7:52 PM CEST
Moon 7:06 AM CEST (10/5) 6:12 PM CEST (10/5)
Length of Visible Light 12h 28m
Length of Day
11h 27m
New Moon, 0% of the Moon is Illuminated
Oct 5
New Moon
Oct 12
First Quarter
Oct 19
Full
Oct 27
Last Quarter
Nov 3
New

Hourly Weather History & Observations

Time (CEST) Temp. Windchill Dew Point Humidity Pressure Visibility Wind Dir Wind Speed Gust Speed Precip Events Conditions
12:15 AM 32.0 °F - 28.4 °F 87% 30.42 in - Calm Calm - N/A   Clear
12:45 AM 32.0 °F - 28.4 °F 87% 30.42 in - Calm Calm - N/A   Clear
1:15 AM 30.2 °F - 26.6 °F 86% 30.42 in 6.2 mi Calm Calm - N/A   Unknown
1:45 AM 30.2 °F - 26.6 °F 86% 30.42 in 6.2 mi Calm Calm - N/A   Unknown
2:15 AM 30.2 °F - 26.6 °F 86% 30.42 in 6.2 mi Calm Calm - N/A   Unknown
2:45 AM 30.2 °F - 26.6 °F 86% 30.42 in 6.2 mi Calm Calm - N/A   Unknown
3:15 AM 28.4 °F - 26.6 °F 93% 30.39 in 5.0 mi Calm Calm - N/A   Unknown
3:45 AM 28.4 °F - 26.6 °F 93% 30.39 in 5.0 mi Calm Calm - N/A   Unknown
4:15 AM 28.4 °F - 26.6 °F 93% 30.39 in 5.0 mi Calm Calm - N/A   Unknown
4:45 AM 30.2 °F - 28.4 °F 93% 30.39 in 5.0 mi Calm Calm - N/A   Unknown
5:00 AM - - - N/A% - 3.1 mi Variable 4.5 mph - N/A   Clear
5:15 AM 28.4 °F - 28.4 °F 100% 30.39 in 5.0 mi ENE 2.2 mph - N/A   Partly Cloudy
5:45 AM 28.4 °F - 26.6 °F 93% 30.36 in 5.0 mi ENE 2.2 mph - N/A   Partly Cloudy
6:15 AM 26.6 °F 21.3 °F 24.8 °F 93% 30.36 in 5.0 mi ENE 4.5 mph - N/A   Partly Cloudy
6:45 AM - - - N/A% - 3.1 mi Variable 4.5 mph - N/A   Clear
7:15 AM 28.4 °F - 24.8 °F 86% 30.36 in 3.7 mi ENE 2.2 mph - N/A   Unknown
7:45 AM 30.2 °F - 24.8 °F 80% 30.36 in 3.7 mi East 2.2 mph - N/A   Unknown
8:15 AM 33.8 °F - 26.6 °F 75% 30.36 in 5.0 mi East 2.2 mph - N/A   Unknown
8:45 AM 39.2 °F 36.0 °F 28.4 °F 65% 30.36 in - ESE 4.5 mph - N/A   Clear
9:15 AM 42.8 °F 40.2 °F 28.4 °F 57% 30.36 in - SE 4.5 mph - N/A   Clear
9:45 AM 44.6 °F 40.8 °F 28.4 °F 53% 30.36 in - SE 6.7 mph - N/A   Clear
10:15 AM 48.2 °F - 26.6 °F 43% 30.36 in - ESE 6.7 mph - N/A   Clear
10:45 AM 50.0 °F - 26.6 °F 40% 30.33 in - SE 8.9 mph - N/A   Clear
11:15 AM 51.8 °F - 26.6 °F 38% 30.33 in - SE 6.7 mph - N/A   Clear
11:45 AM 53.6 °F - 26.6 °F 35% 30.33 in - SE 6.7 mph - N/A   Clear
12:15 PM 53.6 °F - 26.6 °F 35% 30.33 in - SE 6.7 mph - N/A   Clear
12:45 PM 55.4 °F - 26.6 °F 33% 30.33 in - SE 4.5 mph - N/A   Clear
1:15 PM 55.4 °F - 28.4 °F 36% 30.30 in - South 4.5 mph - N/A   Clear
1:45 PM 55.4 °F - 28.4 °F 36% 30.30 in - ESE 4.5 mph - N/A   Clear
2:15 PM 57.2 °F - 30.2 °F 36% 30.27 in - SSE 6.7 mph - N/A   Clear
2:45 PM 57.2 °F - 28.4 °F 33% 30.27 in - East 4.5 mph - N/A   Clear
3:15 PM 57.2 °F - 28.4 °F 33% 30.27 in - SE 6.7 mph - N/A   Clear
3:45 PM 57.2 °F - 28.4 °F 33% 30.24 in - SE 6.7 mph - N/A   Clear
4:15 PM 57.2 °F - 28.4 °F 33% 30.24 in - SE 6.7 mph - N/A   Clear
4:45 PM 57.2 °F - 26.6 °F 31% 30.24 in - SE 6.7 mph - N/A   Clear
5:15 PM 57.2 °F - 28.4 °F 33% 30.24 in - ESE 6.7 mph - N/A   Clear
5:45 PM 55.4 °F - 28.4 °F 36% 30.24 in - SSE 4.5 mph - N/A   Clear
6:15 PM 51.8 °F - 28.4 °F 41% 30.24 in - SE 2.2 mph - N/A   Clear
6:45 PM - - - N/A% - 3.1 mi East 6.7 mph - N/A   Clear
7:15 PM 50.0 °F - 28.4 °F 43% 30.24 in - East 4.5 mph - N/A   Clear
7:45 PM 48.2 °F - 28.4 °F 46% 30.24 in - ESE 2.2 mph - N/A   Clear
8:15 PM 44.6 °F - 28.4 °F 53% 30.24 in - ENE 2.2 mph - N/A   Clear
8:45 PM 41.0 °F - 28.4 °F 61% 30.24 in - NNE 2.2 mph - N/A   Clear
9:15 PM 42.8 °F - 30.2 °F 61% 30.24 in - ENE 2.2 mph - N/A   Clear
9:45 PM - - - N/A% - 3.1 mi ENE 4.5 mph - N/A   Clear
10:15 PM 39.2 °F - 30.2 °F 70% 30.24 in - Calm Calm - N/A   Clear
10:45 PM 41.0 °F - 30.2 °F 65% 30.24 in - Calm Calm - N/A   Clear
11:15 PM 39.2 °F - 30.2 °F 70% 30.24 in - NNE 2.2 mph - N/A   Clear
11:45 PM 39.2 °F - 30.2 °F 70% 30.24 in - NE 2.2 mph - N/A   Clear